Owensboro, KY

5:18 PM CST on December 18, 2017 (GMT -0600)
Owensboro-Daviess County

Weather History for KOWB - January, 2013

Change the Weather History Date:

Tuesday, January 15, 2013

  Actual Average Record
Temperature  
Mean Temperature 28 °F -  
Max Temperature 32 °F 40 °F 68 °F (1949)
Min Temperature 24 °F 23 °F -2 °F (1972)
Degree Days  
Heating Degree Days 37    
Moisture  
Dew Point 25 °F    
Average Humidity 86    
Maximum Humidity 100    
Minimum Humidity 70    
Precipitation  
Precipitation 0.10 in - - ()
Sea Level Pressure  
Sea Level Pressure 30.24 in    
Wind  
Wind Speed 8 mph (NNE)    
Max Wind Speed 10 mph    
Max Gust Speed -    
Visibility 6 miles    
Events Rain , Snow    
Averages and records for this station are not official NWS values.
T = Trace of Precipitation, MM = Missing Value Source: NWS Daily Summary

Daily Weather History Graph

Daily Weather History Graph

Search for Another Location

Airport or City:

Trip Planner

Search our weather history database for the weather conditions in past years. The results will help you decide how hot, cold, wet, or windy it might be!

Date:

Astronomy

Jan. 15, 2013 Rise Set
Actual Time 7:02 AM CST 4:54 PM CST
Civil Twilight 6:34 AM CST 5:22 PM CST
Nautical Twilight 6:01 AM CST 5:54 PM CST
Astronomical Twilight 5:30 AM CST 6:26 PM CST
Moon 9:13 AM CST (1/15) 9:37 PM CST (1/15)
Length of Visible Light 10h 48m
Length of Day
9h 51m
Waxing Crescent, 19% of the Moon is Illuminated
Jan 15
Waxing Crescent
Jan 18
First Quarter
Jan 26
Full
Feb 3
Last Quarter
Feb 10
New

Hourly Weather History & Observations

Time (CST) Temp. Windchill Dew Point Humidity Pressure Visibility Wind Dir Wind Speed Gust Speed Precip Events Conditions
12:56 AM 25.2 °F 15.7 °F 21.0 °F 84% 30.36 in 10.0 mi NNE 9.2 mph - N/A   Clear
1:56 AM 25.2 °F 16.5 °F 21.0 °F 84% 30.36 in 10.0 mi NNE 8.1 mph - N/A   Clear
2:56 AM 24.1 °F 14.4 °F 20.1 °F 85% 30.35 in 10.0 mi NNE 9.2 mph - N/A   Clear
3:56 AM 24.1 °F 15.2 °F 20.1 °F 85% 30.35 in 10.0 mi NNE 8.1 mph - N/A   Clear
4:56 AM 24.1 °F 16.0 °F 20.1 °F 85% 30.34 in 9.0 mi NE 6.9 mph - N/A   Clear
5:56 AM 24.1 °F 14.4 °F 21.0 °F 88% 30.34 in 7.0 mi NNE 9.2 mph - N/A   Clear
6:56 AM 24.1 °F 15.2 °F 21.0 °F 88% 30.34 in 7.0 mi NE 8.1 mph - N/A   Partly Cloudy
7:56 AM 24.1 °F 13.7 °F 21.0 °F 88% 30.35 in 6.0 mi NE 10.4 mph - N/A   Partly Cloudy
8:56 AM 25.2 °F 17.3 °F 22.1 °F 88% 30.35 in 6.0 mi ENE 6.9 mph - N/A   Partly Cloudy
9:56 AM 27.1 °F 18.2 °F 23.0 °F 84% 30.32 in 6.0 mi ENE 9.2 mph - N/A   Partly Cloudy
10:56 AM 30.0 °F 21.1 °F 24.1 °F 79% 30.28 in 6.0 mi ENE 10.4 mph - N/A   Clear
11:56 AM 31.1 °F 22.4 °F 24.1 °F 75% 30.25 in 6.0 mi ENE 10.4 mph - N/A   Scattered Clouds
12:56 PM 31.1 °F 23.7 °F 25.2 °F 79% 30.24 in 6.0 mi North 8.1 mph - N/A   Overcast
1:22 PM 30.2 °F 23.4 °F 24.8 °F 80% 30.25 in 10.0 mi NNE 6.9 mph - N/A   Overcast
1:56 PM 31.1 °F 23.1 °F 24.1 °F 75% 30.25 in 7.0 mi North 9.2 mph - N/A   Overcast
2:56 PM 32.0 °F 23.6 °F 24.1 °F 73% 30.20 in 7.0 mi NE 10.4 mph - N/A   Mostly Cloudy
3:56 PM 32.9 °F 25.9 °F 24.1 °F 70% 30.22 in 7.0 mi NE 8.1 mph - N/A   Scattered Clouds
4:56 PM 32.9 °F 25.9 °F 26.1 °F 76% 30.19 in 5.0 mi NNE 8.1 mph - 0.00 in Snow Snow Grains
5:36 PM 32.0 °F 25.6 °F 28.4 °F 87% 30.16 in 5.0 mi ENE 6.9 mph - 0.01 in Rain Light Rain
5:40 PM 32.0 °F 24.8 °F 28.4 °F 87% 30.17 in 5.0 mi ENE 8.1 mph - 0.01 in Rain Light Rain
5:56 PM 32.0 °F 24.8 °F 28.0 °F 85% 30.18 in 4.0 mi ENE 8.1 mph - 0.01 in Rain Light Rain
6:56 PM 32.0 °F 26.4 °F 30.0 °F 92% 30.17 in 5.0 mi ENE 5.8 mph - 0.04 in Rain Rain
7:56 PM 32.0 °F 27.5 °F 30.0 °F 92% 30.16 in 2.0 mi North 4.6 mph - 0.01 in Snow Light Snow
8:11 PM 30.2 °F 24.3 °F 30.2 °F 100% 30.12 in 2.0 mi NNE 5.8 mph - 0.00 in Snow Light Snow
8:56 PM 31.1 °F 25.4 °F 30.0 °F 96% 30.14 in 3.0 mi North 5.8 mph - 0.01 in Snow Light Snow
9:11 PM 30.2 °F 23.4 °F 30.2 °F 100% 30.13 in 5.0 mi North 6.9 mph - 0.00 in   Overcast
9:24 PM 30.2 °F 25.4 °F 30.2 °F 100% 30.12 in 4.0 mi North 4.6 mph - 0.01 in   Overcast
9:56 PM 31.1 °F 25.4 °F 30.0 °F 96% 30.14 in 6.0 mi NNW 5.8 mph - 0.02 in   Overcast
10:56 PM 32.0 °F 27.5 °F 29.1 °F 89% 30.12 in 8.0 mi NNW 4.6 mph - 0.01 in   Overcast
11:56 PM 32.0 °F 26.4 °F 28.0 °F 85% 30.11 in 10.0 mi North 5.8 mph - N/A   Overcast